Weather History for Indianapolis, IN

Change the Weather History Date:

Wednesday, August 28, 2013

  Actual Average (KEYE) Record (KEYE)
Temperature  
Mean Temperature 81 °F 73 °F  
Max Temperature 91 °F 83 °F 92 °F (2013)
Min Temperature 72 °F 64 °F 56 °F (2010)
Degree Days  
Heating Degree Days 0 0  
Month to date heating degree days 0  
Since 1 June heating degree days 15  
Since 1 July heating degree days 1  
Cooling Degree Days 16 8  
Month to date cooling degree days 262  
Year to date cooling degree days 898  
Since 1 June cooling degree days 814  
Growing Degree Days 31 (Base 50)    
Moisture  
Dew Point 69 °F    
Average Humidity 68    
Maximum Humidity 87    
Minimum Humidity 51    
Precipitation  
Precipitation 0.00 in 0.12 in 1.28 in (1992)
Month to date precipitation 2.84  
Year to date precipitation 28.30  
Sea Level Pressure  
Sea Level Pressure 29.97 in    
Wind  
Wind Speed 8 mph (WNW)    
Max Wind Speed 15 mph    
Max Gust Speed 28 mph    
Visibility 10 miles    
Events      
T = Trace of Precipitation, MM = Missing Value Source: NWS Daily Summary

Daily Weather History Graph

Daily Weather History Graph

Search for Another Location

Airport:

Trip Planner

Search our weather history database for the weather conditions in past years. The results will help you decide how hot, cold, wet, or windy it might be!

Date:

Astronomy

Aug. 28, 2013 Rise Set
Actual Time 7:09 AM EDT 8:22 PM EDT
Civil Twilight 6:41 AM EDT 8:50 PM EDT
Nautical Twilight 6:07 AM EDT 9:23 PM EDT
Astronomical Twilight 5:32 AM EDT 9:58 PM EDT
Moon 12:16 AM EDT (8/28) 2:59 PM EDT (8/28)
Length of Visible Light 14h 09m
Length of Day
13h 13m
Waning Gibbous, 47% of the Moon is Illuminated
Aug 28
Waning Gibbous
Sep 5
New
Sep 12
First Quarter
Sep 19
Full
Sep 26
Last Quarter

Hourly Weather History & Observations

Time (EDT) Temp. Heat Index Dew Point Humidity Pressure Visibility Wind Dir Wind Speed Gust Speed Precip Events Conditions
12:15 AM 76.8 °F - 69.1 °F 77% 29.98 in 10.0 mi WSW 6.9 mph - N/A   Clear
12:35 AM 76.6 °F - 69.1 °F 77% 29.98 in 10.0 mi SW 6.9 mph - N/A   Clear
12:55 AM 76.6 °F - 68.9 °F 77% 29.97 in 10.0 mi SW 6.9 mph - N/A   Clear
1:15 AM 76.6 °F - 68.9 °F 77% 29.98 in 10.0 mi WSW 8.1 mph - N/A   Scattered Clouds
1:35 AM 76.8 °F - 68.5 °F 75% 29.97 in 10.0 mi SW 8.1 mph - N/A   Scattered Clouds
1:55 AM 76.6 °F - 68.2 °F 75% 29.96 in 10.0 mi SW 6.9 mph - N/A   Scattered Clouds
2:15 AM 76.8 °F - 68.4 °F 75% 29.96 in 10.0 mi SW 8.1 mph - N/A   Mostly Cloudy
2:35 AM 76.5 °F - 68.5 °F 76% 29.96 in 10.0 mi WSW 6.9 mph - N/A   Mostly Cloudy
2:55 AM 77.0 °F - 68.9 °F 76% 29.97 in 10.0 mi WSW 6.9 mph - N/A   Overcast
3:15 AM 77.0 °F - 68.9 °F 76% 29.97 in 10.0 mi WSW 6.9 mph - N/A   Overcast
3:35 AM 77.0 °F - 68.9 °F 76% 29.97 in 10.0 mi SW 9.2 mph - N/A   Mostly Cloudy
3:55 AM 77.0 °F - 68.9 °F 76% 29.96 in 10.0 mi WSW 8.1 mph - N/A   Mostly Cloudy
4:15 AM 76.5 °F - 68.9 °F 77% 29.96 in 10.0 mi WSW 9.2 mph - N/A   Scattered Clouds
4:35 AM 76.5 °F - 69.1 °F 78% 29.96 in 10.0 mi WSW 9.2 mph - N/A   Scattered Clouds
4:55 AM 76.3 °F - 68.9 °F 78% 29.97 in 10.0 mi WSW 6.9 mph - N/A   Mostly Cloudy
5:15 AM 76.5 °F - 68.9 °F 77% 29.97 in 10.0 mi WSW 6.9 mph - N/A   Overcast
5:35 AM 76.1 °F - 68.9 °F 78% 29.97 in 10.0 mi WSW 8.1 mph - N/A   Mostly Cloudy
5:55 AM 75.7 °F - 68.5 °F 78% 29.97 in 10.0 mi West 8.1 mph - N/A   Clear
6:15 AM 75.7 °F - 68.0 °F 77% 29.97 in 10.0 mi West 9.2 mph - N/A   Clear
6:35 AM 75.6 °F - 67.8 °F 77% 29.97 in 10.0 mi WSW 9.2 mph - N/A   Clear
6:55 AM 75.2 °F - 67.1 °F 76% 29.97 in 10.0 mi WSW 9.2 mph - N/A   Scattered Clouds
7:15 AM 75.2 °F - 66.9 °F 75% 29.97 in 10.0 mi WSW 9.2 mph - N/A   Scattered Clouds
7:35 AM 75.2 °F - 66.6 °F 74% 29.96 in 10.0 mi WSW 8.1 mph 16.1 mph N/A   Clear
7:55 AM 75.4 °F - 66.2 °F 73% 29.96 in 10.0 mi West 10.4 mph 17.3 mph N/A   Clear
8:15 AM 76.1 °F - 66.2 °F 71% 29.96 in 10.0 mi WSW 10.4 mph 16.1 mph N/A   Clear
8:35 AM 77.0 °F - 66.0 °F 69% 29.96 in 10.0 mi West 11.5 mph - N/A   Clear
8:55 AM 78.3 °F - 65.7 °F 65% 29.96 in 10.0 mi West 12.7 mph 17.3 mph N/A   Clear
9:15 AM 79.3 °F - 65.5 °F 62% 29.96 in 10.0 mi West 12.7 mph 19.6 mph N/A   Clear
9:35 AM 79.7 °F - 65.3 °F 61% 29.96 in 10.0 mi West 11.5 mph 18.4 mph N/A   Clear
9:55 AM 80.6 °F 82.5 °F 65.5 °F 60% 29.96 in 10.0 mi West 15.0 mph 19.6 mph N/A   Clear
10:15 AM 82.6 °F 84.5 °F 65.7 °F 56% 29.96 in 10.0 mi West 9.2 mph 19.6 mph N/A   Clear
10:35 AM 83.3 °F 85.1 °F 64.9 °F 54% 29.96 in 10.0 mi West 15.0 mph 27.6 mph N/A   Clear
10:55 AM 84.0 °F 85.8 °F 65.3 °F 53% 29.96 in 10.0 mi West 15.0 mph 23.0 mph N/A   Clear
11:15 AM 84.9 °F 87.1 °F 65.8 °F 53% 29.96 in 10.0 mi WNW 10.4 mph 20.7 mph N/A   Clear
11:35 AM 85.5 °F 87.6 °F 66.2 °F 52% 29.96 in 10.0 mi WNW 10.4 mph 19.6 mph N/A   Clear
11:55 AM 86.0 °F 88.2 °F 66.2 °F 51% 29.96 in 10.0 mi West 12.7 mph 19.6 mph N/A   Clear
12:15 PM 86.4 °F 89.0 °F 66.7 °F 52% 29.96 in 10.0 mi West 11.5 mph 18.4 mph N/A   Clear
12:35 PM 87.6 °F 91.1 °F 68.2 °F 52% 29.96 in 10.0 mi West 9.2 mph - N/A   Scattered Clouds
12:55 PM 87.4 °F 91.2 °F 68.2 °F 53% 29.96 in 10.0 mi West 11.5 mph - N/A   Mostly Cloudy
1:15 PM 88.0 °F 92.1 °F 68.7 °F 53% 29.96 in 10.0 mi West 12.7 mph 18.4 mph N/A   Mostly Cloudy
1:35 PM 87.4 °F 91.5 °F 69.1 °F 54% 29.96 in 10.0 mi West 11.5 mph - N/A   Overcast
1:55 PM 87.3 °F 91.6 °F 69.1 °F 55% 29.96 in 10.0 mi West 8.1 mph - N/A   Overcast
2:15 PM 88.9 °F 94.2 °F 70.2 °F 54% 29.96 in 10.0 mi West 10.4 mph - N/A   Scattered Clouds
2:35 PM 90.1 °F 95.8 °F 70.3 °F 52% 29.96 in 10.0 mi West 10.4 mph - N/A   Clear
2:55 PM 90.3 °F 95.7 °F 70.2 °F 51% 29.96 in 10.0 mi West 8.1 mph - N/A   Clear
3:15 PM 90.5 °F 96.0 °F 70.2 °F 51% 29.96 in 10.0 mi WNW 8.1 mph 17.3 mph N/A   Scattered Clouds
3:35 PM 90.9 °F 96.7 °F 70.7 °F 51% 29.95 in 10.0 mi WNW 9.2 mph - N/A   Scattered Clouds
3:55 PM 90.5 °F 96.5 °F 70.7 °F 52% 29.95 in 10.0 mi West 11.5 mph 18.4 mph N/A   Mostly Cloudy
4:15 PM 89.1 °F 94.6 °F 70.3 °F 54% 29.95 in 10.0 mi WNW 8.1 mph - N/A   Overcast
4:35 PM 90.1 °F 96.8 °F 71.4 °F 54% 29.95 in 10.0 mi WNW 5.8 mph - N/A   Overcast
4:55 PM 89.2 °F 95.4 °F 71.1 °F 55% 29.95 in 10.0 mi NNW 5.8 mph - N/A   Overcast
5:15 PM 88.0 °F 93.8 °F 71.1 °F 57% 29.95 in 10.0 mi NW 4.6 mph - N/A   Mostly Cloudy
5:35 PM 90.5 °F 97.0 °F 71.2 °F 53% 29.95 in 10.0 mi NW 5.8 mph - N/A   Scattered Clouds
5:55 PM 88.5 °F 94.9 °F 71.6 °F 57% 29.95 in 10.0 mi NNW 6.9 mph - N/A   Scattered Clouds
6:15 PM 87.4 °F 93.5 °F 71.6 °F 59% 29.95 in 10.0 mi North 10.4 mph - N/A   Mostly Cloudy
6:35 PM 86.0 °F 92.6 °F 72.7 °F 64% 29.96 in 10.0 mi North 10.4 mph - N/A   Scattered Clouds
6:55 PM 85.3 °F 92.2 °F 73.4 °F 67% 29.96 in 10.0 mi North 10.4 mph 16.1 mph N/A   Mostly Cloudy
7:15 PM 83.3 °F 89.0 °F 72.5 °F 70% 29.96 in 7.0 mi North 9.2 mph - N/A   Overcast
7:35 PM 82.4 °F 87.4 °F 72.1 °F 71% 29.97 in 10.0 mi North 8.1 mph - N/A   Overcast
7:55 PM 81.5 °F 85.9 °F 71.6 °F 72% 29.97 in 10.0 mi North 6.9 mph - N/A   Scattered Clouds
8:15 PM 80.6 °F 84.4 °F 71.2 °F 73% 29.97 in 10.0 mi North 4.6 mph - N/A   Clear
8:35 PM 79.7 °F - 71.6 °F 76% 29.97 in 10.0 mi North 3.5 mph - N/A   Scattered Clouds
8:55 PM 79.5 °F - 71.6 °F 77% 29.98 in 10.0 mi Calm Calm - N/A   Scattered Clouds
9:15 PM 78.4 °F - 71.4 °F 79% 29.98 in 10.0 mi North 5.8 mph - N/A   Scattered Clouds
9:35 PM 78.1 °F - 70.7 °F 78% 29.99 in 7.0 mi North 5.8 mph - N/A   Clear
9:55 PM 77.0 °F - 70.0 °F 79% 29.99 in 7.0 mi North 5.8 mph - N/A   Clear
10:15 PM 76.1 °F - 69.8 °F 81% 30.00 in 7.0 mi North 5.8 mph - N/A   Clear
10:35 PM 75.2 °F - 69.4 °F 82% 30.01 in 5.0 mi North 6.9 mph - N/A   Haze
10:55 PM 74.3 °F - 69.1 °F 84% 30.02 in 5.0 mi North 5.8 mph - N/A   Haze
11:15 PM 73.6 °F - 68.9 °F 85% 30.02 in 5.0 mi North 4.6 mph - N/A   Haze
11:35 PM 72.9 °F - 68.4 °F 86% 30.02 in 4.0 mi North 3.5 mph - N/A   Haze
11:55 PM 72.5 °F - 68.4 °F 87% 30.03 in 4.0 mi NNW 3.5 mph - N/A   Haze